Location: Gorze? G�rny
(49.8500°N, 19.5000°E)
Time: 12:59:09
(UTC+00:00)

Resurs 1-4 Rocket - Pass Details

Date: 13 May 2021
Orbit: 800 x 814 km, 98.6° (Epoch: 22 June)

Event Time Altitude Azimuth Distance (km) Brightness Sun altitude
Rises 23:44:52 0° 20° (NNE) 3,322 6.9 -20.0°
Reaches altitude 10° 23:47:21 10° 28° (NNE) 2,387 5.7 -19.8°
Maximum altitude 23:52:19 40° 97° (E) 1,165 3.0 -19.6°
Enters shadow 23:54:58 24° 152° (SSE) 1,612 3.3 -19.4°
